Location: Peterborough
(44.3091°N, 78.3197°W)
Time: 20:25:06
(UTC-04:00)

Vanguard 2 Rocket - Pass Details

Date: 25 March 2023
Orbit: 554 x 3314 km, 32.9° (Epoch: 06 June)

Event Time Altitude Azimuth Distance (km) Brightness Sun altitude
Rises 22:37:52 0° 254° (WSW) 4,075 10.7 -31.3°
Reaches altitude 10° 22:40:18 10° 248° (WSW) 3,391 10.1 -31.7°
Enters shadow 22:48:22 47° 184° (S) 2,397 8.6 -32.7°
